Location: Jackson Park
(37.2862°N, 79.9123°W)
Time: 04:56:43
(UTC+00:00)

Explorer 11/Cluster Stage 4 - All Passes

Search period start: 10 May 2026 00:00
Search period end: 20 May 2026 00:00
Orbit: 463 x 1174 km, 28.8° (Epoch: 9 May)

Date Brightness Start Highest point End Pass type
(mag) Time Alt. Az. Time Alt. Az. Time Alt. Az.
10 May - 05:00:14 10° SSW 05:03:40 17° SSE 05:06:44 10° SE night (unlit)
10 May - 06:46:38 10° SW 06:50:40 25° S 06:54:08 10° ESE night (unlit)
10 May - 08:34:10 10° WSW 08:37:28 22° S 08:40:27 10° SE visible
11 May - 04:35:02 10° SSW 04:38:58 18° SSE 04:42:27 10° ESE night (unlit)
11 May - 06:21:39 10° SW 06:26:02 27° S 06:29:47 10° ESE night (unlit)
11 May - 08:09:20 10° WSW 08:12:55 23° S 08:16:05 10° SE visible
11 May - 09:59:18 10° SSW 09:59:27 10° SSW 09:59:36 10° SSW daylight
12 May - 04:09:52 10° SSW 04:14:15 20° SSE 04:18:07 10° ESE night (unlit)
12 May - 05:56:37 10° SW 06:01:24 29° S 06:05:25 10° ESE night (unlit)
12 May - 07:44:26 10° WSW 07:48:19 25° S 07:51:42 10° SE visible
12 May - 09:34:02 10° SW 09:34:53 11° SSW 09:35:42 10° S visible
13 May - 03:44:39 10° SSW 03:49:30 22° SSE 03:53:45 10° ESE night (unlit)
13 May - 05:31:34 10° WSW 05:36:43 31° S 05:41:02 10° ESE night (unlit)
13 May - 07:19:29 10° WSW 07:23:43 26° S 07:27:20 10° SE visible
13 May - 09:08:57 10° SW 09:10:17 11° SSW 09:11:32 10° S visible
14 May - 03:19:28 10° SSW 03:24:42 23° SSE 03:29:19 10° ESE visible
14 May - 05:06:28 10° WSW 05:12:00 33° S 05:16:37 10° ESE night (unlit)
14 May - 06:54:29 10° WSW 06:59:04 28° SSW 07:02:57 10° SE night (unlit)
14 May - 08:43:53 10° SW 08:45:39 12° SSW 08:47:20 10° S visible
15 May - 01:10:51 10° SSE 01:12:34 11° SSE 01:14:15 10° SE visible
15 May - 02:54:16 10° SW 02:59:52 25° SSE 03:04:49 10° ESE visible
15 May - 04:41:21 10° WSW 04:47:14 35° S 04:52:10 10° ESE night (unlit)
15 May - 06:29:26 10° WSW 06:34:23 30° SSW 06:38:33 10° SE night (unlit)
15 May - 08:18:48 10° SW 08:21:02 13° SSW 08:23:06 10° S visible
16 May - 00:45:16 10° S 00:47:40 12° SSE 00:50:01 10° SE visible
16 May - 02:29:06 10° SW 02:35:00 26° SSE 02:40:16 10° ESE visible
16 May - 04:16:13 10° WSW 04:22:27 37° S 04:27:41 10° ESE visible
16 May - 06:04:21 10° WSW 06:09:40 31° SSW 06:14:08 10° SE night (unlit)
16 May - 07:53:42 10° WSW 07:56:22 14° SSW 07:58:49 10° S night (unlit)
17 May - 00:19:55 10° S 00:22:46 12° SSE 00:25:31 10° SE daylight
17 May - 02:03:57 10° SW 02:10:06 27° SSE 02:15:40 10° ESE visible
17 May - 03:51:05 10° WSW 03:57:36 38° S 04:03:09 10° ESE visible
17 May - 05:39:15 10° WSW 05:44:55 33° SSW 05:49:40 10° SE night (unlit)
17 May - 07:28:34 10° WSW 07:31:41 15° SSW 07:34:30 10° S night (unlit)
17 May - 23:54:41 10° S 23:57:49 13° SSE 00:00:54 10° SE daylight
18 May - 01:38:49 10° SW 01:45:09 28° SSE 01:51:00 10° ESE visible
18 May - 03:25:57 10° WSW 03:32:43 40° S 03:38:34 10° ESE visible
18 May - 05:14:07 10° WSW 05:20:08 34° SSW 05:25:11 10° SE night (unlit)
18 May - 07:03:25 10° WSW 07:06:58 16° SSW 07:10:09 10° SSE night (unlit)
18 May - 23:29:34 10° S 23:32:52 13° SSE 23:36:09 10° SE daylight
19 May - 01:13:44 10° SW 01:20:12 29° SSE 01:26:16 10° ESE visible
19 May - 03:00:50 10° WSW 03:07:48 41° S 03:13:57 10° ESE visible
19 May - 04:48:59 10° WSW 04:55:18 36° SSW 05:00:40 10° SE visible
19 May - 06:38:15 10° WSW 06:42:13 18° SSW 06:45:45 10° SSE night (unlit)
19 May - 23:04:32 10° S 23:07:55 13° SSE 23:11:18 10° ESE daylight
